STARLINK-32355, 61634

Orbit data source: Space-Track

STARLINK-32355, 61634 is a payload satellite owned by SpaceX/Seattle (US) in LEO that was launched on Wed, 23 Oct 2024 UTC via an FALCON 9 launch vehicle from the Air Force Eastern Test Range (AFETR). Payload-class satellites include a variety of spacecraft equipped with specific instruments for various scientific and technological missions. These include communications satellites like Starlink; space stations such as the ISS; scientific satellites like the Hubble; Earth observation satellites from companies like Planet Labs, Umbra, and HawkEye 360; GPS; miniature CubeSats for education and research; and military/defense satellites.

Loading next visibility...
Identifier
61634, 2024-191P
Orbit
LEO
Country
Flag of USUS
Related business
Manufacturer
SpaceX/Seattle
Mission
Operational Commercial Communications
Bus & Motor
STARLINK V2M, Unknown motor
Mass
730 kg wet, ~700 kg dry
Launch date (UTC)
2024-10-23 (11 months ago)
Launch vehicle
FALCON 9
Launch site
Air Force Eastern Test Range (AFETR)
Object type
Payload
Rocket body
Debris
Shape & HBR
Box + 2 Pan, 14.5 m
Radar Cross Section
36.964 m², Large (>1 m²)

Expand to show TLE details & history
Last TLE update: 7 hours ago

TLE from 7 hours ago
0 STARLINK-32355
1 61634U 24191P   25258.19915303  .00000109  00000-0  13485-4 0  9995
2 61634  43.0044  69.3705 0001106 283.9942  76.0787 15.27580092 50652
Epoch: 2025-09-15T04:46Z
TLE epoch observation values (Epoch: 2025-09-15T04:46:46.821Z)
Latitude
-0.00001°
Longitude
3.26817°
Altitude
482.642 km
Speed
7.626 km/s
True Right ascension
04h 37m 28s
True Declination
0° 00' 00"
Sunlit
Object was in daylight at epoch
Visualization orbit readout
Latitude
Unknown
Longitude
Unknown
Altitude
Unknown
Speed
Unknown
Apparent Right ascension
Unknown
Apparent Declination
Unknown
Sunlit
N/A
Visualization observer readout
Local Sidereal Time
04:37:26
Azimuth
Unknown
Elevation
Unknown
Doppler factor
Unknown
Orbital elements
Apogee altitude
485.752 km
Perigee altitude
484.234 km
Semi-major axis
6,863.13 km
Eccentricity
0.00011
Inclination
43.0044°
RAAN
69.3705°
Arg. of periapsis
283.9942°
True anomaly
76.091°
Mean anomaly
76.0787°
Eccentric anomaly
76.08485°
Mean motion
3.81733 °/min
Orbital period
94.31 mins
BSTAR
0.000013485
Loading maneuver chart data...
Computing Atmospheric mass density...
Loading historical data...
Loading historical data...
Loading historical data...
Loading historical data...
Loading historical data...
Loading historical data...
Loading historical data...

Documentation

Showing up to 5 results
|